#timestamp,LO_Frequency,Hit,StdDev 
1532509215.7,286046999.7,N
1532509235.5,286047001.6,N
1532509255.7,286047002.5,N
1532509275.5,286047000.4,N
1532509295.4,286047002.6,N
1532509315.2,286047002.3,N
1532509335.0,286047002.6,N
1532509335.9,286047002.6,N
1532509355.8,286047001.3,N
1532509375.6,286047001.6,N
1532509425.5,286047002.6,E
1532509435.4,286047000.4,N
1532509455.2,286046998.2,P
1532509475.1,286046998.4,N
1532509476.0,286046998.4,N
1532509495.8,286046999.0,N
1532509515.7,286046999.4,N
1532509535.5,286046999.2,N
1532509555.3,286046998.3,N
1532509575.2,286046998.1,N
1532509595.0,286047000.7,N
1532509595.9,286047000.7,N
1532509615.7,286046998.2,N
1532509635.6,286047000.6,N
1532509655.4,286047001.1,N
1532509675.3,286047000.5,N
1532509695.1,286047000.6,N
1532509715.8,286046998.1,N
1532509735.7,286047000.5,N
1532509755.5,286047000.4,N
1532509775.4,286046999.9,N
1532509795.2,286046999.7,N
1532509815.0,286047000.3,N
1532509815.9,286047000.3,N
1532509835.8,286047002.6,N
1532509855.6,286047002.0,N
1532509875.5,286047004.2,Y
1532509895.3,286047002.1,P
1532509915.1,286047001.7,N
1532509935.9,286047001.5,N
1532509955.7,286047001.9,N
1532509975.5,286047001.4,N
1532509995.4,286047003.7,Y
1532510015.2,286047002.1,P
1532510035.1,286047003.9,P
1532510036.0,286047003.9,P
1532510055.8,286047001.4,N
1532510075.6,286047002.0,N
1532510095.5,286047001.5,N
1532510115.3,286047001.8,N
1532510135.2,286047001.4,N
1532510155.9,286047002.0,N
1532510175.7,286047001.9,N
1532510195.6,286047001.5,N
1532510215.4,286047002.2,N
1532510235.2,286047001.7,N
1532510255.1,286047001.8,N
1532510256.0,286047001.8,N
1532510275.8,286047001.8,N
1532510295.7,286047001.3,N
1532510315.5,286047003.5,Y
1532510335.3,286047000.0,P
1532510355.2,286046999.8,N
1532510375.0,286046999.8,N
1532510375.9,286046999.8,N
1532510395.7,286047000.1,N
1532510415.6,286047001.7,N
1532510435.4,286047000.1,N
1532510455.3,286047002.1,N
1532510475.1,286047004.4,Y
1532510495.8,286047001.9,P
1532510515.7,286047003.9,P
1532510535.5,286047001.7,N
1532510555.4,286047001.8,N
1532510575.2,286047001.9,N
1532510595.0,286047002.1,N
1532510595.9,286047002.1,N
1532510615.8,286047001.9,N
1532510635.6,286047001.5,N
1532510655.4,286047001.9,N
1532510675.3,286047001.8,N
1532510695.1,286047001.7,N
1532510715.9,286047003.7,Y
1532510735.7,286047001.8,P
1532510755.5,286047001.6,P
1532510775.4,286047001.9,P
1532510795.2,286047001.5,Y
1532510815.0,286047000.5,P
1532510815.9,286047000.5,N
1532510835.8,286047000.5,N
1532510855.6,286047000.5,N
1532510875.5,286047001.2,N
1532510895.3,286047000.7,N
1532510915.1,286047001.2,N
1532510935.9,286046998.2,Y
1532510955.7,286046998.4,P
1532510975.6,286047001.2,N
1532510995.4,286046999.3,N
1532511015.2,286047001.2,N
1532511035.1,286046996.9,N
1532511036.0,286046996.9,N
1532511055.8,286046997.0,N
1532511075.7,286046998.8,N
1532511095.5,286046998.8,N
1532511115.3,286047001.2,N
1532511135.2,286046998.6,N
1532511155.0,286046998.9,N
1532511155.9,286046998.9,N
1532511175.8,286046999.2,N
1532511195.6,286046999.3,N
1532511215.4,286046998.6,N
1532511235.3,286046999.0,N
1532511255.1,286046998.2,N
1532511275.8,286046998.1,N
1532511295.7,286047000.8,N
1532511315.5,286046998.1,N
1532511335.4,286047000.5,N
1532511355.2,286047000.8,N
1532511375.0,286046998.7,N
1532511375.9,286046998.7,N
1532511395.8,286046998.6,N
1532511415.6,286046998.4,N
1532511435.4,286046998.5,N
1532511455.3,286046998.8,N
1532511475.1,286046998.2,N
1532511495.9,286046998.6,N
1532511515.7,286046998.8,N
1532511535.5,286046998.3,N
1532511555.4,286046998.5,N
1532511575.2,286046998.8,N
1532511595.0,286046999.1,N
1532511595.9,286046999.1,N
1532511615.8,286046999.6,N
1532511635.6,286046998.1,N
1532511655.5,286046998.8,N
1532511675.3,286046998.7,N
1532511695.1,286046999.5,N
1532511715.9,286046996.6,Y
1532511735.7,286046998.8,P
1532511755.5,286046999.6,P
1532511775.4,286046999.5,N
1532511795.2,286046999.0,N
1532511815.1,286046999.0,Y
1532511816.0,286046999.0,P
1532511835.8,286047001.0,P
1532511855.6,286047000.1,N
1532511875.5,286047000.4,N
1532511925.3,286046999.8,E
1532511935.3,286047000.4,N
1532511955.1,286047000.5,P
1532511975.8,286046999.9,N
1532511995.7,286047005.8,Y
1532512015.5,286047004.5,P
1532512035.4,286047003.6,N
1532512055.2,286047001.5,N
1532512075.0,286047002.5,N
1532512075.9,286047002.5,N
1532512095.8,286047002.5,N
1532512115.6,286047002.2,N
1532512135.5,286047001.6,N
1532512155.3,286047002.1,N
1532512175.1,286047002.6,N
1532512195.9,286047002.1,N
1532512215.7,286047002.5,N
1532512235.6,286047002.0,N
1532512255.4,286047002.0,N
1532512275.2,286047002.5,N
1532512295.1,286047002.3,N
1532512296.0,286047002.3,N
1532512315.8,286047001.8,N
1532512335.6,286047002.0,N
1532512355.5,286047002.2,N
1532512375.3,286047002.6,Y
1532512395.2,286047001.2,P
1532512415.9,286047001.1,N
1532512435.7,286047001.1,N
1532512455.6,286046998.8,N
1532512475.4,286046999.6,N
1532512495.3,286046999.2,N
1532512515.1,286046996.7,N
1532512516.0,286046996.7,N
1532512535.8,286046997.4,N
1532512555.7,286046997.2,N
1532512575.5,286046995.0,N
1532512595.4,286046995.0,N
1532512615.2,286046995.0,N
1532512635.0,286046996.0,N
1532512635.9,286046996.0,N
1532512655.8,286046996.1,N
1532512705.6,286046995.7,E
1532512715.6,286046996.8,N
1532512735.4,286047000.7,P
1532512755.2,286047000.2,N
1532512775.1,286046999.8,N
1532512776.0,286046999.8,N
1532512795.8,286047000.3,N
